x

Yucatan Basin - 120 Nm Ese Of Cozumel, Mx (42056) Weather Station

5:20 - Sat 21st Jan 2017 All times are CST. -6 hours from GMT.

  • Wind
    22mph, 29mph gusts
  • Sea Temp 81°f
  • Luft Temp 81°f
  • Sea Pressure 1008.9mb
  •  Yucatan Basin - 120 Nm Ese Of Cozumel, Mx
  •  Yucatan Basin - 120 Nm Ese Of Cozumel, Mx

More Historic Weather Station data

Upgrade to MSW Pro to gain access to the past 30 days of data for over 8000 Wavebouys and Weather Stations around the globe.

Join Pro

Comparision Forecast

View Surf forecast
   
Sa 01/21 5:20  -   -   -  22 29 mph 1008.9mb 81f 81f
5:10  -   -   -  25 29 mph 1008.9mb 81f 81f
5:00  -   -   -  25 31 mph 1008.8mb 81f 81f
4:50 8ft 7s 6s 25 29 mph 1008.8mb 81f 81f
4:40 8ft  -  6s 25 31 mph 1008.9mb 81f 81f
4:30  -   -   -  22 29 mph 1008.6mb 81f 81f
4:20  -   -   -  22 29 mph 1009mb 81f 81f
4:10  -   -   -  25 29 mph 1008.8mb 81f 81f
4:00  -   -   -  22 29 mph 1008.9mb 81f 81f
3:50 7ft 7s 5s 25 29 mph 1008.8mb 81f 81f
3:40  -   -   -  22 29 mph 1008.8mb 81f 81f
3:30  -   -   -  25 29 mph 1008.9mb 81f 81f
3:20  -   -   -  25 31 mph 1008.9mb 81f 81f
3:10  -   -   -  22 29 mph 1009mb 81f 81f
3:00  -   -   -  25 29 mph 1009mb 81f 81f
2:50 8ft 7s 6s 25 29 mph 1009.1mb 81f 81f
2:40 8ft  -  6s 25 29 mph 1009.1mb 81f 81f
2:30  -   -   -  25 29 mph 1009.4mb - 81f
2:20  -   -   -  22 29 mph 1009.4mb 81f 81f
2:10  -   -   -  25 31 mph 1009.3mb 81f 81f
2:00  -   -   -  25 34 mph 1009.3mb 81f 81f
1:50 7.5ft 7s 5s 27 34 mph 1009.4mb 81f 81f
1:40 7.5ft  -  5s 27 34 mph 1009.4mb 81f 81f
1:30  -   -   -  27 31 mph 1009.6mb 81f 81f
1:20  -   -   -  27 34 mph 1009.8mb 81f 81f
1:10  -   -   -  27 34 mph 1009.8mb 81f 81f
1:00  -   -   -  27 34 mph 1010mb 81f 81f
12:50 8ft 7s 5s 27 34 mph 1010mb 81f 81f
12:40 8ft  -  5s 27 34 mph 1010.4mb 81f 81f
12:30  -   -   -  27 34 mph 1010.4mb 81f 81f
12:20  -   -   -  27 34 mph 1010.6mb 81f 81f
12:10  -   -   -  25 31 mph 1010.9mb 81f 81f
12:00  -   -   -  27 34 mph 1011mb 81f 81f
11:50 7ft 7s 5s 27 34 mph 1011.1mb 81f 81f
11:40 7ft  -  5s 27 34 mph 1011.3mb 81f 81f
11:30  -   -   -  29 36 mph 1011.5mb 81f 81f
11:20  -   -   -  27 38 mph 1011.8mb 81f 81f
11:10  -   -   -  27 34 mph 1011.9mb 81f 81f
11:00  -   -   -  27 31 mph 1012.1mb 81f 81f
10:50 6.5ft 6s 5s 27 34 mph 1012.3mb 81f 81f
10:40 6.5ft  -  5s 29 38 mph 1012.4mb 81f 81f
10:30  -   -   -  27 34 mph 1012.4mb 81f 81f
10:20  -   -   -  29 36 mph 1012.5mb 81f 81f
10:10  -   -   -  29 36 mph 1012.5mb 81f 81f
10:00  -   -   -  27 36 mph 1012.5mb 81f 81f
9:50 6ft 6s 5s 25 31 mph 1013mb 81f 81f
9:40 6ft  -  5s 25 31 mph 1013.1mb 81f 81f
9:30  -   -   -  25 31 mph 1013.4mb 81f 81f
9:20  -   -   -  25 31 mph 1013.3mb 81f 81f
9:10  -   -   -  25 31 mph 1013.3mb 81f 81f
9:00  -   -   -  25 31 mph 1013.3mb 81f 80f
8:50 5ft 6s 5s 25 29 mph 1013mb 81f 80f
8:40  -   -   -  25 29 mph 1013mb 81f 80f
8:30  -   -   -  25 31 mph 1013mb 81f 80f
8:20  -   -   -  25 31 mph 1013mb 81f 80f
8:10  -   -   -  22 29 mph 1012.8mb 81f 80f
8:00  -   -   -  25 29 mph 1012.8mb 81f 80f
7:50 5ft 6s 5s 25 29 mph 1012.8mb 81f 80f
7:40  -   -   -  22 27 mph 1012.5mb 81f 80f
7:30  -   -   -  22 27 mph 1012.8mb 81f 80f
7:20  -   -   -  22 27 mph 1012.6mb 81f 80f
7:10  -   -   -  20 27 mph 1012.8mb 81f 80f
7:00  -   -   -  22 27 mph 1012.6mb 81f 80f
6:50 4.5ft 5s 5s 22 25 mph 1012.5mb 81f 80f
6:40 4.5ft  -  5s 22 27 mph 1012.5mb 81f 80f
6:30  -   -   -  22 27 mph 1012.5mb - 80f
6:20  -   -   -  22 25 mph 1012.3mb 81f 80f
6:10  -   -   -  20 25 mph 1012.3mb 81f 80f
6:00  -   -   -  20 27 mph 1012.1mb 81f 80f
5:50 5ft 6s 5s 20 27 mph 1012.1mb 81f 80f
5:40 5ft  -  5s 20 25 mph 1012.1mb 81f 80f
5:30  -   -   -  20 25 mph 1012.1mb 81f 80f
5:20  -   -   -  20 25 mph 1012.3mb 81f 80f
5:10  -   -   -  20 25 mph 1012.1mb 81f 80f
5:00  -   -   -  20 25 mph 1012.1mb 81f 80f
4:50 4.5ft 6s 5s 20 22 mph 1012.3mb 81f 80f
4:40 4.5ft  -  5s 18 22 mph 1012.3mb 81f 80f
4:30  -   -   -  18 25 mph 1012.1mb 81f 80f
4:20  -   -   -  20 25 mph 1012.1mb 81f 80f
4:10  -   -   -  18 22 mph 1012mb 81f 80f
4:00  -   -   -  20 25 mph 1012mb 81f 80f
3:50 4.5ft 6s 5s 20 22 mph 1012mb 81f 80f
3:40 4.5ft  -  5s 20 22 mph 1012.1mb 81f 80f
3:30  -   -   -  20 25 mph 1012mb 81f 80f
3:20  -   -   -  18 22 mph 1012mb 81f 80f
3:10  -   -   -  18 22 mph 1012mb 81f 80f
3:00  -   -   -  18 22 mph 1012mb 81f 80f
2:50 4.5ft 6s 5s 18 22 mph 1012.1mb 81f 80f
2:40 4.5ft  -  5s 18 22 mph 1012.3mb 81f 80f
2:30  -   -   -  18 22 mph 1012.3mb 81f 80f
2:20  -   -   -  18 22 mph 1012.4mb 81f 80f
2:10  -   -   -  20 25 mph 1012.5mb 81f 80f
2:00  -   -   -  20 25 mph 1012.4mb 81f 80f
1:50 4.5ft 5s 5s 18 22 mph 1012.5mb 81f 80f
1:40 4.5ft  -  5s 20 22 mph 1012.5mb 81f 80f
1:30  -   -   -  20 25 mph 1012.6mb 81f 80f
1:20  -   -   -  18 22 mph 1012.8mb 81f 80f
1:10  -   -   -  18 22 mph 1013mb 81f 80f
1:00  -   -   -  18 22 mph 1013mb 81f 80f
12:50 4.5ft 5s 4s 18 22 mph 1013mb 81f 80f
12:40  -   -   -  20 22 mph 1013mb 81f 80f
12:30  -   -   -  18 22 mph 1013.3mb 81f 80f
12:20  -   -   -  18 22 mph 1013.4mb 81f 80f
12:10  -   -   -  18 20 mph 1013.5mb 81f 80f
12:00  -   -   -  18 20 mph 1013.5mb 81f 80f
Fr 01/20 11:50 4.5ft 5s 5s 18 22 mph 1013.6mb - 80f
11:40 4.5ft  -  5s 18 22 mph 1013.6mb - 80f
11:30  -   -   -  20 25 mph 1013.6mb 81f 80f
11:20  -   -   -  18 25 mph 1013.6mb 81f 80f
11:10  -   -   -  18 22 mph 1013.6mb 81f 80f
11:00  -   -   -  18 22 mph 1013.6mb 81f 80f
10:50 4.5ft 6s 5s 18 22 mph 1013.6mb 81f 80f
10:40  -   -   -  18 22 mph 1013.6mb 81f 80f
10:30  -   -   -  18 22 mph 1013.8mb 81f 80f
10:20  -   -   -  18 22 mph 1013.9mb 81f 80f
10:10  -   -   -  18 22 mph 1014mb 81f 80f
10:00  -   -   -  18 22 mph 1014.1mb 81f 80f
9:50 4.5ft 6s 5s 20 22 mph 1014.1mb 81f 80f
9:40  -   -   -  18 22 mph 1014.3mb 81f 80f
9:30  -   -   -  18 22 mph 1014.3mb 81f 80f
9:20  -   -   -  18 22 mph 1014.4mb 81f 80f
9:10  -   -   -  18 22 mph 1014.4mb 81f 80f
9:00  -   -   -  18 22 mph 1014.4mb 81f 80f
8:50 4.5ft 5s 5s 18 22 mph 1014.3mb 81f 80f
8:40 4.5ft  -  5s 18 22 mph 1014.3mb 81f 80f
8:30  -   -   -  18 22 mph 1014mb 81f 80f
8:20  -   -   -  18 22 mph 1013.9mb 81f 80f
8:10  -   -   -  18 22 mph 1013.6mb 81f 80f
8:00  -   -   -  18 22 mph 1013.6mb 81f 80f
7:50 4.5ft 5s 5s 18 22 mph 1013.5mb 81f 80f
7:40  -   -   -  20 22 mph 1013.4mb 81f 80f
7:30 4.5ft  -  5s 20 25 mph 1013.3mb 81f 80f
7:20  -   -   -  20 22 mph 1013.3mb 81f 80f
7:10  -   -   -  20 25 mph 1013.1mb 81f 80f
7:00  -   -   -  20 25 mph 1013mb 81f 80f
6:50 4ft 5s 4s 20 25 mph 1012.9mb 81f 80f
6:40  -   -   -  20 22 mph 1012.8mb 81f 80f
6:30  -   -   -  18 25 mph 1012.6mb 81f 80f
6:20  -   -   -  18 22 mph 1012.5mb 81f 80f
6:10  -   -   -  18 22 mph 1012.5mb 81f 80f
6:00  -   -   -  20 25 mph 1012.3mb 81f 80f
5:50 4.5ft 5s 4s 20 25 mph 1012.1mb 81f 80f
5:40  -   -   -  18 22 mph 1012mb 81f 80f
5:30  -   -   -  20 25 mph 1012mb 81f 80f
5:20  -   -   -  20 25 mph 1012mb 81f 80f
5:10  -   -   -  20 25 mph 1012mb 81f 80f
5:00  -   -   -  20 25 mph 1011.9mb 81f 80f
4:50 4ft 5s 4s 20 25 mph 1012mb 81f 80f
4:40  -   -   -  20 25 mph 1011.9mb 81f 80f
4:30  -   -   -  20 25 mph 1011.8mb 81f 80f
4:20  -   -   -  20 25 mph 1011.8mb 81f 80f
4:10  -   -   -  20 25 mph 1011.8mb 81f 80f
4:00  -   -   -  18 25 mph 1011.8mb 81f 80f
3:50 4ft 5s 5s 18 20 mph 1011.6mb 81f 80f
3:40  -   -   -  18 20 mph 1011.6mb 81f 80f
3:30  -   -   -  18 20 mph 1011.6mb 81f 80f
3:20  -   -   -  18 22 mph 1011.6mb 81f 80f
3:10  -   -   -  18 22 mph 1011.6mb - -
3:00  -   -   -  18 22 mph 1011.6mb 81f 80f
2:50 3.5ft 6s 4s 18 20 mph 1011.6mb 81f 80f
2:40 3.5ft  -  4s 16 20 mph 1011.6mb 81f 80f
2:30  -   -   -  18 22 mph 1011.6mb 81f 80f
2:20  -   -   -  18 20 mph 1011.6mb 81f 80f
2:10  -   -   -  18 22 mph 1011.8mb 81f 80f
2:00  -   -   -  18 20 mph 1011.9mb 81f 80f
1:50 4ft 6s 5s 18 20 mph 1012mb 81f 80f
1:40 4ft  -  5s 18 22 mph 1012mb 81f 80f
1:30  -   -   -  18 20 mph 1012.3mb 81f 80f
1:20  -   -   -  18 20 mph 1012.4mb 81f 80f
1:10  -   -   -  18 20 mph 1012.6mb 81f 80f
1:00  -   -   -  18 20 mph 1012.8mb 81f 80f
12:50 4ft 5s 5s 16 22 mph 1013mb 81f 80f
12:40  -   -   -  18 20 mph 1013mb 81f 80f
12:30  -   -   -  18 20 mph 1013.4mb - -
12:20  -   -   -  18 20 mph 1013.5mb 81f 80f
12:10  -   -   -  18 20 mph 1013.5mb 81f 80f
12:00  -   -   -  18 22 mph 1013.9mb 81f 80f
11:50 3.5ft 5s 5s 16 20 mph 1014mb 81f 80f
11:40 3.5ft  -  5s 16 20 mph 1014.3mb 81f 80f
11:30  -   -   -  16 20 mph 1014.5mb - 80f
11:20  -   -   -  16 20 mph 1014.6mb 81f 80f
11:10  -   -   -  16 20 mph 1014.6mb 81f 80f
11:00  -   -   -  16 18 mph 1015mb 81f 80f
10:50 3.5ft 5s 5s 16 20 mph 1015mb 81f 80f
10:40 3.5ft  -  5s 16 20 mph 1015.3mb 81f 80f
10:30  -   -   -  16 20 mph 1015.3mb 81f 80f
10:20  -   -   -  16 18 mph 1015.4mb 81f 80f
10:10  -   -   -  16 18 mph 1015.4mb 81f 80f
10:00  -   -   -  16 20 mph 1015.5mb 81f 80f
9:50 3.5ft 5s 5s 16 18 mph 1015.5mb 81f 80f
9:40 3.5ft  -  5s 16 20 mph 1015.4mb 81f 80f
9:30  -   -   -  16 20 mph 1015.3mb 81f 80f
9:20  -   -   -  16 20 mph 1015.3mb 81f 80f
9:10  -   -   -  16 20 mph 1015.1mb 81f 80f
9:00  -   -   -  16 18 mph 1015mb 81f 80f
8:50 4ft 5s 5s 16 18 mph 1015mb 81f 80f
8:40  -   -   -  16 18 mph 1014.9mb 81f 80f
8:30  -   -   -  13 18 mph 1014.6mb 81f 80f
8:20  -   -   -  16 18 mph 1014.5mb 81f 80f
8:10  -   -   -  16 18 mph 1014.3mb 81f 80f
8:00  -   -   -  16 20 mph 1014.1mb 81f 80f
7:50 3.5ft 6s 5s 16 20 mph 1014mb 81f 80f
7:40 3.5ft  -  5s 16 20 mph 1014mb 81f 80f
7:30  -   -   -  16 20 mph 1013.6mb 81f 80f
7:20  -   -   -  16 20 mph 1013.5mb 81f 80f
7:10  -   -   -  16 20 mph 1013.4mb - 80f
7:00  -   -   -  16 20 mph 1013.1mb 81f 80f
6:50 4ft 5s 5s 18 20 mph 1013mb 81f 80f
6:40  -   -   -  16 20 mph 1013mb 81f 80f
6:30  -   -   -  16 20 mph 1012.9mb 81f 80f
6:20  -   -   -  16 20 mph 1012.9mb 81f 80f
6:10  -   -   -  16 20 mph 1012.8mb 81f 80f
6:00  -   -   -  16 20 mph 1012.6mb 81f 80f
5:50 4.5ft 5s 5s 16 20 mph 1012.5mb 81f 80f
5:40 4.5ft  -  5s 16 20 mph 1012.4mb 81f 80f
5:30  -   -   -  16 20 mph 1012.3mb 81f 80f
5:20  -   -   -  16 20 mph 1012.1mb 81f 80f
5:10  -   -   -  16 20 mph 1012mb 81f 79f
5:00  -   -   -  16 20 mph 1012mb 81f 79f
4:50 4.5ft 5s 5s 16 20 mph 1012mb 81f 80f
4:40  -   -   -  16 20 mph 1011.9mb 81f 80f
4:30  -   -   -  16 20 mph 1011.8mb 81f 79f
4:20  -   -   -  16 20 mph 1011.8mb 81f 79f
4:10  -   -   -  18 22 mph 1011.5mb 81f 79f
4:00  -   -   -  18 22 mph 1011.5mb 81f 79f
3:50 4.5ft 5s 5s 18 20 mph 1011.5mb 81f 79f
3:40  -   -   -  18 20 mph 1011.5mb 81f 79f
3:30  -   -   -  18 22 mph 1011.5mb 81f 79f
3:20  -   -   -  18 22 mph 1011.5mb 81f 79f
3:10  -   -   -  20 25 mph 1011.4mb 81f 79f
3:00  -   -   -  20 25 mph 1011mb 81f 79f
2:50 4ft 5s 4s 20 27 mph 1011mb 81f 79f
2:40  -   -   -  20 25 mph 1011mb 81f 79f
2:30  -   -   -  20 25 mph 1011mb 81f 79f
2:20  -   -   -  20 25 mph 1011.4mb 81f 79f
2:10  -   -   -  20 25 mph 1011.5mb 81f 79f
2:00  -   -   -  20 25 mph 1011.4mb 81f 79f
1:50 3.5ft 5s 4s 20 25 mph 1011.8mb 81f 79f
1:40 3.5ft  -  4s 18 25 mph 1012mb 81f 79f
1:30  -   -   -  20 25 mph 1012.1mb 81f 79f
1:20  -   -   -  20 22 mph 1012.4mb 81f 79f
1:10  -   -   -  18 22 mph 1012.5mb 81f 80f
1:00  -   -   -  18 22 mph 1012.6mb 81f 79f
12:50 3.5ft 4s 5s 18 22 mph 1012.8mb 81f 80f
12:40  -   -   -  18 22 mph 1013mb 81f 80f
12:30  -   -   -  18 22 mph 1013mb 81f 80f
12:20  -   -   -  18 22 mph 1013.1mb 81f 80f
12:10  -   -   -  18 22 mph 1013.4mb 81f 80f
12:00  -   -   -  18 25 mph 1013.5mb 81f 80f
Do 01/19 11:50 3.5ft 6s 4s 18 22 mph 1013.6mb 81f 80f
11:40 3.5ft  -  4s 18 22 mph 1013.8mb 81f 80f
11:30  -   -   -  18 20 mph 1014mb 81f 80f
11:20  -   -   -  18 22 mph 1014.1mb 81f 80f
11:10  -   -   -  18 22 mph 1014.5mb 81f 80f
11:00  -   -   -  18 20 mph 1014.5mb 81f 80f
10:50 3.5ft  -  5s 18 22 mph 1014.5mb 81f 80f
10:40 3.5ft  -  5s 16 22 mph 1014.6mb 81f 80f
10:30  -   -   -  13 18 mph 1014.9mb 81f 79f
10:20  -   -   -  18 22 mph 1014.9mb 81f 80f
10:10  -   -   -  16 18 mph 1015mb 81f 80f
10:00  -   -   -  16 20 mph 1015mb 81f 80f
9:50 3ft 6s 4s 16 20 mph 1015mb 81f 79f
9:40 3ft  -  4s 16 18 mph 1015mb 81f 79f
9:30  -   -   -  16 20 mph 1015.1mb 81f 79f
9:20  -   -   -  16 18 mph 1015.3mb 81f 79f
9:10  -   -   -  16 20 mph 1015.3mb 81f 80f
9:00  -   -   -  16 18 mph 1015.3mb 81f 79f
8:50 3.5ft 5s 5s 16 18 mph 1015.1mb 81f 79f
8:40 3.5ft  -  5s 16 18 mph 1015mb 81f 79f
8:30  -   -   -  16 18 mph 1015mb 81f 79f
8:20  -   -   -  13 18 mph 1015mb 81f 79f
8:10  -   -   -  16 18 mph 1014.8mb 81f 79f
8:00  -   -   -  13 16 mph 1014.6mb 81f 79f
7:50 3.5ft 6s 5s 13 16 mph 1014.5mb 81f 79f
7:40  -   -   -  13 16 mph 1014.5mb 81f 79f
7:30  -   -   -  13 16 mph 1014.5mb 81f 78f
7:20  -   -   -  13 18 mph 1014.5mb 81f 79f
7:10  -   -   -  13 18 mph 1014.5mb 81f 78f
7:00  -   -   -  13 18 mph 1014.5mb 81f 78f
6:50 3.5ft 7s 5s 16 20 mph 1014.5mb 81f 77f
6:40  -   -   -  18 22 mph 1014.3mb 81f 78f
6:30  -   -   -  18 22 mph 1014.1mb 81f 79f
6:20  -   -   -  13 16 mph 1014.1mb 81f 79f
6:10  -   -   -  11 13 mph 1014.1mb 81f 79f
6:00  -   -   -  11 13 mph 1014.1mb 81f 79f
5:50 3.5ft 7s 5s 11 13 mph 1014mb 81f 78f
5:40 3.5ft  -  5s 11 13 mph 1014.1mb 81f 78f
5:30  -   -   -  9 11 mph 1014mb 81f 78f
5:20  -   -   -  11 16 mph 1014mb 81f 78f
5:10  -   -   -  13 18 mph 1014mb 81f 79f
5:00  -   -   -  11 16 mph 1014mb 81f 79f
4:50 4.5ft 7s 5s 11 13 mph 1014mb 81f 79f
4:40  -   -   -  9 13 mph 1014mb 81f 79f
4:30  -   -   -  11 13 mph 1014mb 81f 80f
4:20  -   -   -  9 11 mph 1014mb 81f 79f
4:10  -   -   -  9 11 mph 1013.9mb 81f 79f
4:00  -   -   -  11 13 mph 1013.8mb 81f 79f
3:50 4.5ft 6s 5s 9 11 mph 1013.8mb 81f 79f
3:40  -   -   -  9 13 mph 1013.8mb 81f 80f
3:30  -   -   -  11 13 mph 1013.9mb 81f 80f
3:20  -   -   -  11 13 mph 1013.8mb 81f 80f
3:10  -   -   -  11 13 mph 1013.5mb 81f 80f
3:00  -   -   -  11 16 mph 1013.5mb 81f 80f
2:50 4.5ft 6s 5s 11 16 mph 1013.5mb 81f 80f
2:40 4.5ft  -  5s 13 16 mph 1013.5mb 81f 80f
2:30  -   -   -  13 16 mph 1013.6mb 81f 80f
2:20  -   -   -  13 16 mph 1013.6mb 81f 80f
2:10  -   -   -  13 16 mph 1013.6mb 81f 80f
2:00  -   -   -  13 16 mph 1013.8mb 81f 80f
1:50 4.5ft 7s 5s 11 16 mph 1013.9mb 81f 79f
1:40 4.5ft  -  5s 11 13 mph 1014mb 81f 79f
1:30  -   -   -  11 16 mph 1014.1mb 81f 79f
1:20  -   -   -  11 16 mph 1014.3mb 81f 79f
1:10  -   -   -  11 16 mph 1014.4mb 81f 79f
1:00  -   -   -  13 16 mph 1014.5mb 81f 79f
12:50 5ft 7s 5s 13 16 mph 1014.5mb 81f 79f
12:40 5ft  -  5s 13 16 mph 1014.5mb 81f 79f
12:30  -   -   -  13 16 mph 1014.6mb 81f 79f
12:20  -   -   -  13 16 mph 1014.8mb 81f 79f
12:10  -   -   -  13 16 mph 1015mb 81f 79f
12:00  -   -   -  13 16 mph 1015.3mb 81f 79f
11:50 4.5ft 6s 5s 13 18 mph 1015.5mb 81f 79f
11:40 4.5ft  -  5s 13 18 mph 1015.5mb 81f 79f
11:30  -   -   -  13 18 mph 1015.9mb 81f 79f
11:20  -   -   -  16 18 mph 1016mb 81f 79f
11:10  -   -   -  16 18 mph 1016mb 81f 79f
11:00  -   -   -  16 20 mph 1016.3mb 81f 79f
10:50 4.5ft 7s 5s 18 25 mph 1016.3mb 81f 80f
10:40  -   -   -  20 22 mph 1016.4mb 81f 80f
10:30  -   -   -  20 25 mph 1016.5mb 81f 80f
10:20  -   -   -  20 25 mph 1016.5mb - 80f
10:10  -   -   -  20 25 mph 1016.5mb 81f 80f
10:00  -   -   -  20 25 mph 1016.6mb 81f 80f
9:50 5ft 7s 5s 20 25 mph 1016.8mb 81f 80f
9:40 5ft  -  5s 20 22 mph 1016.6mb 81f 80f
9:30  -   -   -  20 25 mph 1016.6mb 81f 80f
9:20  -   -   -  20 27 mph 1016.8mb 81f 80f
9:10  -   -   -  20 22 mph 1016.8mb 81f 80f
9:00  -   -   -  20 25 mph 1016.8mb 81f 80f
8:50 4.5ft 8s 5s 20 25 mph 1016.8mb 81f 80f
8:40 4.5ft  -  5s 20 25 mph 1016.6mb 81f 80f
8:30  -   -   -  20 25 mph 1016.6mb 81f 80f
8:20  -   -   -  18 22 mph 1016.5mb 81f 80f
8:10  -   -   -  20 25 mph 1016.5mb 81f 80f
8:00  -   -   -  20 25 mph 1016.4mb 81f 80f
7:50 4.5ft 7s 5s 20 25 mph 1016.4mb 81f 80f
7:40  -   -   -  20 22 mph 1016.1mb 81f 80f
7:30  -   -   -  18 22 mph 1016.1mb 81f 80f
7:20  -   -   -  18 25 mph 1016mb 81f 80f
7:10  -   -   -  20 22 mph 1015.8mb - 80f
7:00  -   -   -  18 22 mph 1015.5mb 81f 80f
6:50 4.5ft 7s 5s 18 25 mph 1015.5mb 81f 80f
6:40 4.5ft  -  5s 18 22 mph 1015.5mb 81f 80f
6:30  -   -   -  16 20 mph 1015.5mb 81f 78f
6:20  -   -   -  16 20 mph 1015.5mb 81f 78f
6:10  -   -   -  18 22 mph 1015.5mb 81f 77f
6:00  -   -   -  18 22 mph 1015.5mb 81f 77f
5:50 4.5ft 7s 5s 20 22 mph 1015.5mb 81f 77f
5:40 4.5ft  -  5s 22 25 mph 1015.5mb 81f 77f
5:30  -   -   -  22 25 mph 1015.5mb 81f 77f
5:20  -   -   -  22 29 mph 1015.4mb 81f 77f
5:10  -   -   -  22 27 mph 1015.3mb 81f 78f
5:00  -   -   -  16 22 mph 1015.3mb 81f 79f
4:50 4.5ft 8s 5s 11 16 mph 1015.3mb 81f 79f
4:40 4.5ft  -  5s 11 16 mph 1015.1mb 81f 79f
4:30  -   -   -  11 13 mph 1015mb 81f 79f
4:20  -   -   -  11 13 mph 1015mb 81f 79f
4:10  -   -   -  9 13 mph 1015mb 81f 79f
4:00  -   -   -  11 13 mph 1014.9mb 81f 79f
3:50 4ft 7s 5s 11 13 mph 1014.9mb 81f 79f
3:40 4ft  -  5s 11 13 mph 1014.9mb 81f 79f
3:30  -   -   -  11 16 mph 1014.9mb 81f 79f
3:20  -   -   -  11 16 mph 1014.9mb 81f 79f
3:10  -   -   -  11 16 mph 1014.9mb 81f 79f
3:00  -   -   -  11 16 mph 1014.9mb 81f 79f
2:50 4.5ft 7s 5s 11 13 mph 1014.8mb 81f 79f
2:40 4.5ft  -  5s 13 16 mph 1014.9mb 81f 79f
2:30  -   -   -  13 16 mph 1014.9mb 81f 79f
2:20  -   -   -  11 16 mph 1014.9mb 81f 79f
2:10  -   -   -  11 13 mph 1015mb 81f 79f
2:00  -   -   -  11 16 mph 1015mb 81f 79f
1:50 4.5ft 8s 5s 13 16 mph 1015.1mb 81f 80f
1:40 4.5ft  -  5s 13 16 mph 1015.3mb 81f 79f
1:30  -   -   -  13 16 mph 1015.4mb 81f 80f
1:20  -   -   -  13 16 mph 1015.5mb 81f 79f
1:10  -   -   -  13 16 mph 1015.5mb 81f 79f
1:00  -   -   -  13 18 mph 1015.6mb 81f 80f
12:50 4.5ft  -  5s 13 18 mph 1015.8mb 81f 80f
12:40 4.5ft 6s 5s  -  mph - - -
12:30  -   -   -  16 18 mph 1016mb 81f 80f
12:20  -   -   -  16 18 mph 1016mb 81f 80f
12:10  -   -   -  16 18 mph 1016.1mb 81f 80f
12:00  -   -   -  16 18 mph 1016.3mb 81f 80f
Mi 01/18 11:50 4.5ft 7s 5s 13 18 mph 1016.4mb 81f 79f
11:40 4.5ft  -  5s 16 20 mph 1016.5mb 81f 79f
11:30  -   -   -  13 18 mph 1016.5mb 81f 80f
11:20  -   -   -  16 18 mph 1016.6mb 81f 80f
11:10  -   -   -  16 18 mph 1016.8mb 81f 80f
11:00  -   -   -  13 18 mph 1016.9mb 81f 80f
10:50 4ft 6s 5s 16 18 mph 1017mb 81f 80f
10:40 4ft  -  5s 16 18 mph 1016.9mb 81f 80f
10:30  -   -   -  16 18 mph 1017mb 81f 80f
10:20  -   -   -  16 18 mph 1017mb 81f 80f
10:10  -   -   -  16 20 mph 1017mb 81f 80f
10:00  -   -   -  16 20 mph 1017mb 81f 80f
9:50 4.5ft 7s 5s 13 18 mph 1017.1mb 81f 80f
9:40 4.5ft  -  5s 13 18 mph 1017.3mb 81f 80f
9:30  -   -   -  16 18 mph 1017.3mb 81f 80f
9:20  -   -   -  13 16 mph 1017.3mb 81f 80f
9:10  -   -   -  13 16 mph 1017.1mb 81f 80f
9:00  -   -   -  13 16 mph 1017.3mb 81f 80f
8:50 4.5ft 7s 5s 13 16 mph 1017.1mb 81f 80f
8:40  -   -   -  13 16 mph 1017.1mb 81f 80f
8:30  -   -   -  13 16 mph 1017.1mb 81f 80f
8:20  -   -   -  13 16 mph 1017.1mb 81f 80f
8:10  -   -   -  13 16 mph 1017.1mb 81f 80f
8:00  -   -   -  11 16 mph 1017.1mb 81f 80f
7:50 4ft 7s 5s 13 16 mph 1017.1mb 81f 80f
7:40  -   -   -  13 18 mph 1017mb 81f 80f
7:30  -   -   -  13 16 mph 1017mb 81f 80f
7:20  -   -   -  13 18 mph 1016.9mb - 80f
7:10  -   -   -  13 18 mph 1016.8mb 81f 80f
7:00  -   -   -  11 16 mph 1016.8mb 81f 80f
6:50 4.5ft 7s 5s 13 16 mph 1016.6mb 81f 80f
6:40 4.5ft  -  5s 13 18 mph 1016.5mb 81f 80f
6:30  -   -   -  13 16 mph 1016.5mb 81f 80f
6:20  -   -   -  13 16 mph 1016.4mb 81f 80f
6:10  -   -   -  13 16 mph 1016.5mb 81f 80f
6:00  -   -   -  13 16 mph 1016.5mb 81f 80f
5:50 4ft 8s 5s 11 13 mph 1016.5mb 81f 80f
5:40 4ft  -  5s 11 13 mph 1016.6mb 81f 80f
5:30  -   -   -  11 13 mph 1016.5mb 81f 80f
5:20  -   -   -  11
mph
1016.5mb 81f 80f
5:10  -   -   -  11 13 mph 1016.5mb 81f 80f
5:00  -   -   -  11 16 mph 1016.6mb - -
4:50 4.5ft 6s 5s 11 13 mph 1016.5mb 81f 80f
4:40  -   -   -  11 16 mph 1016.5mb 81f 80f
4:30  -   -   -  11 13 mph 1016.5mb 81f 80f
4:20  -   -   -  11 13 mph 1016.4mb 81f 80f
4:10  -   -   -  11 16 mph 1016.3mb 81f 80f
4:00  -   -   -  11 16 mph 1016.1mb 81f 80f
3:50 4.5ft 6s 5s 11 16 mph 1016.3mb 81f 80f
3:40 4.5ft  -  5s 11 16 mph 1016mb 81f 80f
3:30  -   -   -  11 13 mph 1016mb 81f 80f
3:20  -   -   -  11 13 mph 1016.1mb 81f 80f
3:10  -   -   -  11 16 mph 1016mb 81f 80f
3:00  -   -   -  11 16 mph 1016.1mb 81f 80f
2:50 4.5ft 7s 5s 11 16 mph 1016.1mb 81f 80f
2:40 4.5ft  -  5s 11 16 mph 1016.1mb 81f 80f
2:30  -   -   -  11 13 mph 1016.3mb 81f 80f
2:20  -   -   -  11 16 mph 1016.4mb 81f 80f
2:10  -   -   -  11 16 mph 1016.5mb 81f 80f
2:00  -   -   -  11 13 mph 1016.5mb 81f 80f
1:50 4.5ft 6s 5s 11 13 mph 1016.5mb 81f 80f
1:40 4.5ft  -  5s 11 13 mph 1016.9mb 81f 80f
1:30  -   -   -  13 16 mph 1017.6mb - 80f
1:20  -   -   -  11 13 mph 1017mb 81f 80f
1:10  -   -   -  11 16 mph 1017mb 81f 80f
1:00  -   -   -  11 16 mph 1017.1mb 81f 80f
12:50 5ft 7s 5s 11 16 mph 1017.3mb 81f 80f
12:40 5ft  -  5s 11 16 mph 1017.4mb 81f 80f
12:30  -   -   -  11 16 mph 1017.5mb 81f 80f
12:20  -   -   -  13 16 mph 1017.5mb 81f 80f
12:10  -   -   -  13 18 mph 1017.6mb 81f 80f
12:00  -   -   -  13 18 mph 1017.8mb 81f 80f
11:50 5ft 7s 5s 16 18 mph 1017.9mb 81f 80f
11:40  -   -   -  16 18 mph 1018mb 81f 80f
11:30  -   -   -  16 18 mph 1018.3mb 81f 80f
11:20  -   -   -  16 18 mph 1018.4mb 81f 80f
11:10  -   -   -  16 20 mph 1018.5mb 81f 80f
11:00  -   -   -  16 20 mph 1018.8mb 81f 80f
10:50 5ft 8s 5s 18 22 mph 1018.9mb 81f 80f
10:40 5ft  -  5s 16 20 mph 1019mb 81f 80f
10:30  -   -   -  16 18 mph 1019.1mb 81f 80f
10:20  -   -   -  16 20 mph 1019.4mb 81f 80f
10:10  -   -   -  16 20 mph 1019.4mb - 80f
10:00  -   -   -  16 20 mph 1019.4mb 81f 80f
9:50 5ft 7s 5s 16 20 mph 1019.4mb 81f 80f
9:40 5ft  -  5s 16 20 mph 1019.1mb 81f 80f
9:30  -   -   -  16 20 mph 1019.1mb 81f 80f
9:20  -   -   -  18 20 mph 1019mb 81f 80f
9:10  -   -   -  16 22 mph 1019.1mb 81f 80f
9:00  -   -   -  18 22 mph 1019mb 81f 80f
8:50 5.5ft 7s 5s 16 20 mph 1019mb 81f 80f
8:40 5.5ft  -  5s 16 20 mph 1018.9mb 81f 80f
8:30  -   -   -  18 20 mph 1018.6mb 81f 80f
8:20  -   -   -  18 20 mph 1018.5mb 81f 80f
8:10  -   -   -  18 22 mph 1018.4mb 81f 80f
8:00  -   -   -  18 22 mph 1019mb 81f 80f
7:50 5ft 8s 5s 16 20 mph 1018.3mb 81f 80f
7:40 5ft  -  5s 18 20 mph 1018mb 81f 80f
7:30  -   -   -  18 20 mph 1018.1mb 81f 80f
7:20  -   -   -  18 20 mph 1018mb 81f 80f
7:10  -   -   -  18 22 mph 1018mb 81f 80f
7:00  -   -   -  18 22 mph 1017.9mb 81f 80f
6:50 5ft 7s 5s 18 22 mph 1017.8mb 81f 80f
6:40 5ft  -  5s 18 22 mph 1017.6mb 81f 80f
6:30  -   -   -  18 22 mph 1017.5mb - -
6:20  -   -   -  18 22 mph 1017.5mb 81f 80f
6:10  -   -   -  18 22 mph 1017.5mb 81f 80f
6:00  -   -   -  18 22 mph 1017.5mb 81f 80f
5:50 5.5ft 8s 5s 18 22 mph 1017.5mb - 80f
5:40 5.5ft  -  5s 18 22 mph 1017.3mb 81f 80f
5:30  -   -   -  20 25 mph 1017.1mb 81f 80f
5:20  -   -   -  20 25 mph 1017mb 81f 79f
5:10  -   -   -  18 22 mph 1017.1mb 81f 79f
5:00  -   -   -  18 22 mph 1017.1mb 81f 79f
4:50 5.5ft 8s 5s 18 22 mph 1017.1mb 81f 79f
4:40  -   -   -  18 22 mph 1017mb 81f 79f
4:30  -   -   -  18 22 mph 1017mb 81f 79f
4:20  -   -   -  18 25 mph 1016.9mb 81f 79f
4:10  -   -   -  18 22 mph 1016.8mb 81f 79f
4:00  -   -   -  18 22 mph 1016.8mb 81f 79f
3:50 5.5ft 8s 5s 18 22 mph 1016.8mb 81f 79f
3:40 5.5ft  -  5s 18 20 mph 1016.8mb 81f 79f
3:30  -   -   -  16 20 mph 1016.8mb 81f 79f
3:20  -   -   -  18 22 mph 1016.6mb 81f 79f
3:10  -   -   -  18 22 mph 1016.6mb 81f 79f
3:00  -   -   -  18 22 mph 1016.6mb 81f 79f
2:50 5.5ft 8s 6s 18 22 mph 1016.8mb 81f 79f
2:40 5.5ft  -  6s 18 22 mph 1016.9mb 81f 79f
2:30  -   -   -  18 22 mph 1017mb 81f 79f
2:20  -   -   -  18 25 mph 1017mb 81f 79f
2:10  -   -   -  18 22 mph 1017mb 81f 79f
2:00  -   -   -  18 22 mph 1017mb 81f 79f
1:50 6ft 8s 6s 18 22 mph 1017.1mb 81f 79f
1:40 6ft  -  6s 16 20 mph 1017.3mb 81f 80f
1:30  -   -   -  16 20 mph 1017.5mb 81f 80f
1:20  -   -   -  16 20 mph 1017.5mb 81f 80f
1:10  -   -   -  16 20 mph 1017.5mb 81f 80f
1:00  -   -   -  18 20 mph 1017.5mb 81f 80f
12:50 6ft 8s 6s 16 20 mph 1017.6mb 81f 80f
12:40  -   -   -  18 22 mph 1017.6mb 81f 80f
12:30  -   -   -  18 22 mph 1017.8mb 81f 80f
12:20  -   -   -  18 20 mph 1017.8mb 81f 80f
12:10  -   -   -  18 20 mph 1017.9mb 81f 80f